CW1335 Weather Reports


time (UTC)temp
C
wind
direction
speed
KPH
gust
KPH
rain 1hr
cm
rain 24hr
cm
rain mn
cm
humidity
%
barometer
mb
20260906144550 22 78 4.8 14.5 0.00 0.00 0.00 81 1018.2
20260906143014 22 57 3.2 14.5 0.00 0.00 0.00 83 1018.0
20260906141620 22 92 1.6 9.7 0.00 0.00 0.00 83 1018.0
20260906140108 21 87 3.2 12.9 0.00 0.00 0.00 86 1018.0
20260906134513 20 47 3.2 12.9 0.00 0.03 0.00 91 1018.0
20260906133133 20 60 3.2 8.0 0.00 0.03 0.00 94 1018.1
20260906131614 18 64 3.2 8.0 0.00 0.03 0.00 96 1018.0
20260906130044 18 60 3.2 6.4 0.00 0.03 0.00 97 1018.0
20260906124614 17 184 0.0 0.0 0.00 0.03 0.00 97 1017.9
20260906123057 16 184 0.0 0.0 0.00 0.03 0.00 97 1017.6
20260906121523 15 184 0.0 0.0 0.00 0.03 0.00 97 1017.5
20260906120005 15 184 0.0 0.0 0.00 0.03 0.00 97 1017.3
20260906114601 14 184 0.0 0.0 0.00 0.03 0.00 96 1017.0
20260906113048 14 184 0.0 0.0 0.00 0.03 0.00 96 1016.9
20260906111531 14 184 0.0 0.0 0.00 0.03 0.00 96 1016.6
20260906110118 14 184 0.0 0.0 0.00 0.03 0.00 96 1016.5
20260906104552 14 184 0.0 0.0 0.00 0.03 0.00 96 1016.6
20260906103014 15 184 0.0 0.0 0.00 0.03 0.00 96 1016.5
20260906101621 15 184 0.0 0.0 0.00 0.03 0.00 96 1016.4
20260906100112 15 184 0.0 0.0 0.00 0.03 0.00 96 1016.5
20260906094541 15 184 0.0 0.0 0.00 0.03 0.00 96 1016.4
20260906093013 15 184 0.0 3.2 0.00 0.03 0.00 96 1016.3
20260906091616 15 70 0.0 0.0 0.00 0.03 0.00 96 1016.4
20260906090120 15 70 0.0 0.0 0.00 0.03 0.00 96 1016.2
20260906084549 16 70 0.0 0.0 0.00 0.03 0.00 96 1016.2
20260906083010 15 70 0.0 0.0 0.00 0.03 0.00 97 1016.4
20260906081614 15 70 0.0 0.0 0.00 0.03 0.00 97 1016.3
20260906074519 14 70 0.0 0.0 0.00 0.03 0.00 95 1016.0
20260906073122 15 70 0.0 0.0 0.00 0.03 0.00 95 1016.0
20260906071605 15 70 0.0 0.0 0.00 0.03 0.00 96 1015.9
20260906070050 15 70 0.0 0.0 0.00 0.03 0.00 95 1015.8
20260906064511 15 70 0.0 0.0 0.00 0.03 0.00 95 1016.1
20260906063116 15 70 0.0 0.0 0.00 0.03 0.00 95 1016.0
20260906061558 15 70 0.0 0.0 0.00 0.03 0.00 95 1015.9
20260906060052 15 70 0.0 1.6 0.00 0.03 0.00 95 1015.9
20260906054617 16 70 0.0 3.2 0.00 0.03 0.00 95 1015.9
20260906053100 16 70 0.0 3.2 0.00 0.03 0.00 95 1015.7
20260906051545 16 70 0.0 3.2 0.00 0.03 0.00 94 1015.6
20260906050005 16 70 0.0 1.6 0.00 0.03 0.00 94 1015.6
20260906044546 16 70 0.0 1.6 0.00 0.03 0.03 94 1015.5
20260906043014 17 70 0.0 1.6 0.00 0.03 0.03 93 1015.3
20260906041618 17 70 0.0 1.6 0.00 0.03 0.03 92 1015.3
20260906034524 17 70 0.0 6.4 0.00 0.03 0.03 91 1015.1
20260906033120 17 63 3.2 6.4 0.00 0.03 0.03 92 1014.9
20260906031602 18 84 3.2 6.4 0.00 0.03 0.03 92 1014.9
20260906030022 18 67 1.6 6.4 0.00 0.03 0.03 92 1014.9
20260906024615 18 78 3.2 12.9 0.00 0.03 0.03 93 1015.0
20260906023100 18 80 4.8 11.3 0.00 0.03 0.03 95 1014.9
20260906021556 18 59 0.0 1.6 0.00 0.03 0.03 94 1014.8
20260906020011 18 59 0.0 0.0 0.00 0.03 0.03 93 1014.7
20260906014616 19 59 0.0 0.0 0.00 0.03 0.03 92 1014.6
20260906013049 20 59 0.0 1.6 0.00 0.03 0.03 93 1014.5
20260906011515 20 59 0.0 1.6 0.00 0.03 0.03 92 1014.4
20260906010000 20 59 0.0 0.0 0.00 0.03 0.03 92 1014.3
20260906004600 20 59 0.0 3.2 0.00 0.03 0.03 91 1014.6
20260906003005 20 59 0.0 3.2 0.00 0.03 0.03 90 1014.4
20260906001609 21 59 1.6 4.8 0.00 0.03 0.03 90 1014.5
20260906000055 21 85 6.4 8.0 0.00 0.03 0.03 88 1014.4
20260905234507 21 93 4.8 11.3 0.00 0.03 0.03 88 1014.5
20260905233139 21 71 4.8 9.7 0.00 0.03 0.03 88 1014.5
20260905231557 21 78 3.2 8.0 0.00 0.03 0.03 88 1014.6
20260905230019 22 77 4.8 9.7 0.00 0.03 0.03 88 1014.3
20260905224630 22 90 6.4 14.5 0.00 0.03 0.03 87 1014.4
20260905223106 22 61 6.4 14.5 0.00 0.03 0.03 86 1014.3
20260905221542 22 102 4.8 12.9 0.00 0.03 0.03 87 1014.0
20260905220007 23 69 11.3 16.1 0.00 0.03 0.03 84 1013.7
20260905214602 23 95 4.8 16.1 0.00 0.03 0.03 85 1013.5
20260905213033 23 79 9.7 17.7 0.00 0.03 0.03 84 1013.6
20260905211511 23 82 6.4 12.9 0.00 0.03 0.03 84 1013.9
20260905210115 23 84 9.7 16.1 0.00 0.03 0.03 84 1013.9
20260905204552 23 96 4.8 14.5 0.00 0.03 0.03 86 1013.8
20260905203040 23 76 4.8 14.5 0.00 0.03 0.03 87 1013.9
20260905201508 23 53 4.8 9.7 0.00 0.03 0.03 87 1013.8
20260905200110 23 65 3.2 14.5 0.00 0.03 0.03 87 1013.8
20260905194546 23 84 8.0 16.1 0.00 0.03 0.03 86 1013.7
20260905193013 23 92 4.8 12.9 0.00 0.03 0.03 90 1013.8
20260905191620 23 54 6.4 12.9 0.00 0.03 0.03 89 1014.0
20260905190137 23 80 4.8 11.3 0.00 0.03 0.03 88 1014.0
20260905184546 23 59 3.2 14.5 0.00 0.03 0.03 88 1014.0
20260905183121 23 91 4.8 12.9 0.00 0.03 0.03 87 1014.0
20260905181603 23 57 4.8 11.3 0.00 0.03 0.03 86 1013.9
20260905180047 24 82 6.4 14.5 0.00 0.03 0.03 85 1013.9
20260905174509 24 346 6.4 14.5 0.00 0.03 0.03 86 1013.9
20260905173113 24 71 4.8 14.5 0.00 0.03 0.03 87 1013.8
20260905171552 24 101 3.2 16.1 0.00 0.03 0.03 87 1013.9
20260905170015 23 51 4.8 12.9 0.00 0.03 0.03 87 1013.9
20260905164613 23 360 1.6 16.1 0.00 0.03 0.03 88 1013.9
20260905163103 23 321 1.6 8.0 0.00 0.03 0.03 89 1013.9
20260905161543 23 76 4.8 16.1 0.00 0.03 0.03 88 1013.9
20260905160007 23 117 3.2 8.0 0.00 0.03 0.03 88 1013.9
20260905154605 23 342 1.6 11.3 0.00 0.03 0.03 88 1013.8
20260905153047 23 69 3.2 9.7 0.00 0.03 0.03 89 1013.7
20260905151532 23 111 3.2 12.9 0.00 0.03 0.03 89 1013.6
20260905150118 22 317 3.2 9.7 0.00 0.03 0.03 90 1013.4